Location: Songkhla
(7.2000°N, 100.6000°E)
Time: 04:23:07
(UTC+07:00)

First-Move - Pass Details

Date: 04 August 2021
Orbit: 576 x 665 km, 97.6° (Epoch: 15 September)

Event Time Altitude Azimuth Distance (km) Brightness Sun altitude
Rises 04:19:25 0° 22° (NNE) 2,973 ? -26.9°
Reaches altitude 10° 04:21:42 10° 29° (NNE) 2,070 ? -26.4°
Maximum altitude 04:26:01 44° 101° (E) 921 ? -25.4°
Enters shadow 04:28:37 22° 162° (SSE) 1,452 ? -24.8°
